CAPE
0 11 11 12 0 0 0 0 0 0 0 0 0 0 0 0 0 0 0 0 0 0 0 0 0 0 0 0 0 0 0 0 0 0 0 0 0 0 0 0 0 0 0 0
12 4 0 1 5 3 0 0 0 0 0 0 0 0 0 0 0 0 0 0 0 0 0 0 0 0 0 0 0 0 0 0 0 0 0 0 0 0 0 0 0 0 0 0
27 0 0 5 2 10 7 1 0 0 0 0 0 0 0 0 0 0 0 0 0 0 0 0 0 0 0 0 0 0 0 0 0 0 0 0 0 0 0 0 0 0 0 0
10 0 9 15 26 8 2 0 2 0 0 0 0 0 0 0 0 0 0 0 0 0 0 0 0 0 0 0 0 0 0 0 0 0 0 0 0 0 0 0 0 0 0 0
0 4 1 3 0 3 3 0 3 2 0 0 0 1 0 0 0 0 0 0 0 0 0 0 0 0 0 0 0 0 0 0 0 0 0 0 0 0 0 0 0 0 0 0
2 4 26 0 0 0 3 4 10 16 9 1 0 0 0 0 0 0 0 0 0 0 0 0 0 0 0 0 0 0 0 0 0 0 0 0 0 0 0 0 0 0 0 0
0 3 4 8 38 28 33 17 2 0 2 0 0 0 0 0 0 0 0 0 0 0 0 0 0 0 0 0 0 0 0 0 0 0 0 0 0 0 0 0 0 0 0 0
0 0 5 2 3 10 0 11 3 0 0 0 0 0 0 0 0 0 0 0 0 0 0 0 0 0 0 0 0 0 0 0 0 0 0 0 0 0 0 0 0 0 0 0
0 0 0 0 13 1 2 2 0 0 0 0 0 0 0 0 0 0 0 0 0 0 0 0 0 0 0 0 0 0 0 0 0 0 0 0 0 0 0 0 0 0 0 0
2 11 0 0 35 17 19 2 8 0 0 0 0 0 0 0 0 0 0 0 0 0 0 0 0 0 0 0 0 0 0 0 0 0 0 0 0 0 0 0 0 0 0 0
10 7 0 3 3 0 1 3 4 0 0 0 0 0 0 0 0 0 0 0 0 0 0 0 0 0 0 0 0 0 0 0 0 0 0 0 0 0 0 0 0 0 0 0
0 0 13 4 3 0 10 7 21 0 0 0 0 0 0 0 0 0 0 0 0 0 0 0 0 0 0 0 0 0 0 0 0 0 0 0 0 0 0 0 0 0 0 0
2 3 0 0 0 1 10 8 2 0 0 0 0 0 0 0 0 0 0 0 0 0 0 0 0 0 0 0 0 0 0 0 0 0 0 0 0 0 0 0 0 0 0 0
2 0 1 0 0 1 0 17 5 7 9 0 0 0 0 0 0 0 0 0 0 0 0 0 0 0 0 0 0 0 0 0 0 0 0 0 0 0 0 0 0 0 0 0
11 0 0 0 0 2 17 3 6 4 0 0 0 0 0 0 0 0 0 0 0 0 0 0 0 0 0 0 0 0 0 0 0 0 0 0 0 0 0 0 0 0 0 0
23 0 0 0 0 8 0 0 1 14 1 4 0 0 0 0 0 0 0 0 0 0 0 0 0 0 0 0 0 0 0 0 0 0 0 0 0 0 0 0 0 0 1 1
1 11 0 0 0 7 2 0 0 0 2 0 0 0 0 0 0 0 0 0 0 0 0 0 0 0 0 0 0 0 0 0 0 0 0 0 0 0 0 0 0 0 0 0
0 0 3 0 3 1 0 0 0 0 0 0 0 0 0 0 0 0 0 0 0 0 0 0 0 0 0 0 0 0 0 0 0 0 0 0 0 0 0 0 0 0 0 0
0 0 0 1 0 0 0 0 0 0 0 0 0 0 0 0 0 0 0 0 0 0 0 0 0 0 0 0 0 0 0 0 0 0 0 0 0 0 0 0 0 0 0 0
0 2 2 1 0 0 0 0 0 0 0 0 0 0 0 0 0 0 0 0 0 0 0 0 0 0 0 0 0 0 0 0 0 0 0 0 0 0 0 0 0 0 0 0
0 3 0 0 1 0 0 0 0 13 0 0 0 0 0 0 0 0 0 0 0 0 0 0 0 0 0 0 0 0 0 0 0 0 0 0 0 0 0 0 0 0 0 0
0 0 3 0 0 0 0 0 0 0 0 0 0 0 0 0 0 0 0 0 0 0 0 0 0 0 0 0 0 0 0 0 0 0 0 0 0 0 0 0 0 0 0 0
0 0 0 18 0 0 0 0 0 0 0 0 0 0 0 0 0 0 0 0 0 0 0 0 0 0 0 0 0 0 0 0 0 0 0 0 0 0 0 0 0 0 0 0
0 0 0 2 0 0 0 0 0 0 0 0 0 0 0 0 0 0 0 0 0 0 0 0 0 0 0 0 0 0 0 0 0 0 0 0 0 0 0 0 0 0 0 0
0 0 0 0 0 0 0 0 0 0 0 0 0 0 0 0 0 0 0 0 0 0 0 0 0 0 0 0 0 0 0 0 0 0 0 0 0 0 0 0 0 0 0 0
1 5 0 0 2 6 0 0 0 0 0 0 0 0 0 0 0 0 0 0 0 0 0 0 0 0 0 0 0 0 0 0 0 0 0 0 0 0 0 0 1 0 0 0
CIN
0 0 0 0 0 0 0 0 0 0 0 0 0 0 0 0 0 0 0 0 0 0 0 0 0 0 0 0 0 0 0 0 0 0 0 0 0 0 0 0 0 0 0 0
0 0 0 -4 -4 -4 0 0 0 0 0 0 0 0 0 0 0 0 0 0 0 0 0 0 0 0 0 0 0 0 0 0 0 0 0 0 0 0 0 0 0 0 0 0
-5 -1 0 -2 -3 0 -2 0 0 0 0 0 0 0 0 0 0 0 0 0 0 0 0 0 0 0 0 0 0 0 0 0 0 0 0 0 0 0 0 0 0 0 0 0
0 0 -1 -1 -1 -9 -2 -2 -5 -1 0 0 0 0 0 0 0 0 0 0 0 0 0 0 0 0 0 0 0 0 0 0 0 0 0 0 0 0 0 0 0 0 0 0
0 -3 -1 0 0 -3 -4 0 -1 -2 0 0 -2 0 0 0 0 0 0 0 0 0 0 0 0 0 0 0 0 0 0 0 0 0 0 0 0 0 0 0 0 0 0 0
-3 -12 -4 0 0 0 -16 -1 0 -2 -3 -2 0 0 0 0 0 0 0 0 0 0 0 0 0 0 0 0 0 0 0 0 0 0 0 0 0 0 0 0 0 0 0 0
0 -1 -1 -6 -4 -6 -3 0 -1 0 -2 0 0 0 0 0 0 0 0 0 0 0 0 0 0 0 0 0 0 0 0 0 0 0 0 0 0 0 0 0 0 0 0 0
0 0 0 -1 -1 -1 0 0 -3 0 0 0 0 0 0 0 0 0 0 0 0 0 0 0 0 0 0 0 0 0 0 0 0 0 0 0 0 0 0 0 0 0 0 0
0 0 0 0 -2 -2 0 0 0 0 0 0 0 0 0 0 0 0 0 0 0 0 0 0 0 0 0 0 0 0 0 0 0 0 0 0 0 0 0 0 0 0 0 0
-1 -4 0 0 -8 -11 -6 -7 -4 0 0 0 0 0 0 0 0 0 0 0 0 0 0 0 0 0 0 0 0 0 0 0 0 0 0 0 0 0 0 0 0 0 0 0
-9 -5 0 -4 -1 0 0 -5 -4 0 0 0 0 0 0 0 0 0 0 0 0 0 0 0 0 0 0 0 0 0 0 0 0 0 0 0 0 0 0 0 0 0 0 0
0 0 -5 -18 -1 0 -16 0 -4 -7 -1 0 0 0 0 0 0 0 0 0 0 0 0 0 0 0 0 0 0 0 0 0 0 0 0 0 0 0 0 0 0 0 0 0
-2 0 0 0 0 -10 -20 0 -2 -1 0 0 0 0 0 0 0 0 0 0 0 0 0 0 0 0 0 0 0 0 0 0 0 0 0 0 0 0 0 0 0 0 0 0
0 0 -2 0 0 -1 0 0 0 0 -1 0 0 0 0 0 0 0 0 0 0 0 0 0 0 0 0 0 0 0 0 0 0 0 0 0 0 0 0 0 0 0 0 0
-2 0 0 0 0 0 -12 0 -6 -8 -1 0 0 0 0 0 0 0 0 0 0 0 0 0 0 0 0 0 0 0 0 0 0 0 0 0 0 0 0 0 0 0 0 0
-12 0 0 0 0 0 -1 0 -26 -1 0 0 0 0 0 0 0 0 0 0 0 0 0 0 0 0 0 0 0 0 0 0 0 0 0 0 0 0 0 0 0 0 0 0
-8 -2 0 0 0 -4 -5 0 0 0 0 0 0 0 0 0 0 0 0 0 0 0 0 0 0 0 0 0 0 0 0 0 0 0 0 0 0 0 0 0 0 0 0 0
0 0 0 0 -1 0 0 0 0 0 0 0 0 0 0 0 0 0 0 0 0 0 0 0 0 0 0 0 0 0 0 0 0 0 0 0 0 0 0 0 0 0 0 0
0 0 0 0 0 0 0 0 0 0 0 0 0 0 0 0 0 0 0 0 0 0 0 0 0 0 0 0 0 0 0 0 0 0 0 0 0 0 0 0 0 0 0 0
0 -2 0 -2 -1 0 0 0 0 0 0 0 0 0 0 0 0 0 0 0 0 0 0 0 0 0 0 0 0 0 0 0 0 0 0 0 0 0 0 0 0 0 0 0
0 -3 0 0 -1 0 0 0 0 -7 0 0 0 0 0 0 0 0 0 0 0 0 0 0 0 0 0 0 0 0 0 0 0 0 0 0 0 0 0 0 0 0 0 0
0 -1 -2 0 -2 0 0 0 0 0 0 0 0 0 0 0 0 0 0 0 0 0 0 0 0 0 0 0 0 0 0 0 0 0 0 0 0 0 0 0 0 0 0 0
0 0 -1 -4 0 0 0 0 0 0 0 0 0 0 0 0 0 0 0 0 0 0 0 0 0 0 0 0 0 0 0 0 0 0 0 0 0 0 0 0 0 0 0 0
0 0 -1 -1 0 0 0 0 0 0 0 0 0 0 0 0 0 0 0 0 0 0 0 0 0 0 0 0 0 0 0 0 0 0 0 0 0 0 0 0 0 0 0 0
0 0 0 0 0 0 0 0 0 0 0 0 0 0 0 0 0 0 0 0 0 0 0 0 0 0 0 0 0 0 0 0 0 0 0 0 0 0 0 0 0 0 0 0
0 0 0 0 0 0 0 0 0 0 0 0 0 0 0 0 0 0 0 0 0 0 0 0 0 0 0 0 0 0 0 0 0 0 0 0 0 0 0 0 0 0 0 0
Wind_Speed
39 48 43 41 34 34 36 41 44 37 33 37 42 47 42 40 40 42 37 41 43 43 41 30 22 18 15 13 12 12 12 13 13 14 14 16 16 17 17 15 9 7 6 6
37 45 49 38 34 38 38 41 42 35 31 35 43 50 45 43 41 43 42 44 41 38 36 35 24 20 17 16 15 14 14 14 14 14 15 16 15 17 12 10 9 9 9 8
45 34 37 35 32 36 38 45 40 38 31 34 41 52 49 43 43 43 42 42 46 46 41 39 27 23 21 19 17 17 16 16 16 15 15 16 16 18 15 16 14 11 10 9
50 45 36 35 36 33 40 35 39 43 41 48 33 55 49 42 42 42 45 39 43 50 39 38 32 25 22 21 22 19 18 17 16 16 16 16 14 14 12 13 13 12 11 11
51 45 46 42 45 34 33 26 31 37 40 44 47 51 51 38 44 45 42 39 44 48 33 33 27 23 22 24 22 22 21 20 18 18 19 18 17 15 17 15 13 12 12 12
48 37 38 45 44 37 31 32 33 35 38 55 56 50 59 48 48 47 41 38 42 37 26 30 31 26 24 23 23 24 24 23 21 21 20 20 19 17 18 16 15 15 15 15
49 44 42 39 43 35 35 34 43 47 47 57 42 49 69 43 38 40 39 39 39 34 22 22 21 20 20 21 21 21 23 25 24 24 22 21 20 20 19 19 19 17 15 15
50 51 42 39 44 42 43 42 45 54 53 56 38 56 57 45 47 43 37 41 37 35 34 30 15 16 18 19 20 19 20 23 25 25 23 21 20 19 20 19 17 16 16 18
40 53 35 39 35 40 36 43 38 38 36 49 48 57 52 47 48 45 40 37 41 42 39 37 31 15 16 18 19 20 20 20 21 24 23 21 20 19 18 17 15 14 15 18
33 40 43 38 33 38 40 33 41 39 53 61 55 60 63 44 47 44 45 44 43 38 38 40 35 24 17 15 17 17 19 21 21 21 22 21 20 19 18 15 15 15 16 16
35 39 34 30 45 43 40 41 36 32 36 47 59 60 47 48 45 46 44 41 39 38 39 38 34 30 24 19 16 15 17 18 19 19 19 19 20 21 20 17 16 16 16 16
37 31 43 38 35 44 43 38 39 43 45 43 46 65 33 25 27 31 36 39 38 36 35 33 29 25 24 20 17 15 16 17 20 20 20 20 22 23 20 19 19 18 18 19
34 43 49 39 38 37 46 49 44 43 39 46 52 66 43 48 48 42 34 32 33 33 31 31 28 28 28 28 25 18 19 19 21 22 22 23 23 22 21 21 21 20 21 21
25 40 47 53 38 29 44 44 46 46 52 54 52 67 57 40 38 34 36 37 33 31 33 32 31 29 30 31 27 26 25 23 21 22 23 23 23 23 23 21 21 21 20 20
31 37 43 54 55 51 43 42 44 51 52 51 54 61 71 53 49 40 37 36 36 35 34 33 32 32 30 28 27 28 26 21 22 22 23 24 23 22 21 20 19 18 17 17
32 46 43 56 53 53 59 60 51 52 54 53 62 62 64 54 48 48 51 54 53 49 43 37 34 32 30 29 27 26 22 17 18 19 20 21 20 19 18 17 16 15 15 14
31 35 37 58 44 46 58 62 60 56 55 51 59 52 70 52 50 50 50 50 56 54 53 44 38 33 29 27 24 24 22 18 18 19 19 18 16 15 14 13 13 13 13 13
41 43 37 55 45 59 54 50 49 53 58 53 61 74 74 63 61 54 51 54 55 52 53 54 46 38 32 28 25 23 21 18 18 19 19 16 14 14 13 13 13 13 13 12
38 41 43 48 55 50 53 50 42 44 61 51 56 61 72 71 51 55 50 46 46 48 47 49 48 43 37 33 28 25 23 22 22 21 19 16 15 14 14 14 13 13 12 12
37 41 42 45 53 57 59 49 38 39 63 47 43 50 52 68 62 75 57 50 53 50 51 50 44 37 35 34 30 29 27 27 28 24 20 17 16 16 16 15 14 13 12 13
41 38 46 51 53 52 60 43 37 46 52 44 42 51 70 56 59 75 61 48 46 47 50 49 44 41 38 32 31 34 31 31 29 25 20 18 18 17 17 16 15 14 14 14
44 43 44 45 45 53 34 33 39 47 59 48 44 51 61 52 63 65 61 52 44 41 40 42 44 44 39 33 34 36 35 30 26 24 21 20 19 19 18 17 17 16 15 15
47 43 47 38 42 40 35 41 33 37 42 39 43 42 46 47 55 58 56 51 46 40 41 38 38 41 38 34 34 36 35 28 26 24 23 21 20 19 19 19 19 18 17 17
40 40 49 50 61 50 44 38 36 38 40 41 39 39 37 41 45 47 46 46 41 38 37 35 33 33 31 30 32 34 29 26 25 25 24 22 21 21 21 20 19 18 17 16
36 38 40 47 44 42 34 36 41 42 41 40 38 33 33 37 40 40 41 41 38 35 31 28 29 30 30 28 28 29 28 26 26 25 23 23 23 22 20 20 19 17 16 15
35 37 41 46 41 44 50 44 45 43 42 41 42 41 36 36 39 39 37 31 30 30 28 25 24 24 26 28 29 28 27 27 26 25 25 24 23 21 20 18 17 15 14 13
Wind_Direction
247 245 247 243 246 259 255 253 254 262 268 266 262 261 267 268 267 265 267 261 259 258 259 268 268 260 254 248 235 225 225 236 238 247 252 262 262 264 267 268 258 235 243 258
247 242 243 251 250 252 257 256 257 265 270 268 266 262 266 267 267 264 263 260 261 261 264 265 263 258 242 236 232 237 229 230 225 240 251 264 266 269 256 242 228 233 256 256
238 248 243 243 250 251 255 252 255 259 272 273 271 263 263 267 266 265 263 263 256 255 262 263 261 251 252 241 234 236 235 235 229 234 252 262 272 275 267 265 263 239 226 229
245 247 251 248 247 250 256 259 260 262 265 259 268 257 260 265 265 264 260 266 229 248 263 264 262 256 241 236 247 237 239 234 231 230 237 226 233 229 247 260 258 258 240 236
242 244 244 248 247 253 262 269 264 263 264 264 260 260 256 265 261 260 262 266 261 254 264 264 259 250 245 246 236 239 240 234 231 227 227 233 232 250 265 266 261 252 252 237
248 253 250 250 252 251 261 265 269 267 264 255 253 257 253 257 258 261 267 271 266 270 267 264 264 260 252 248 246 246 240 235 235 235 230 227 228 241 259 259 257 261 266 266
244 248 250 250 250 248 244 253 257 255 253 253 260 254 244 258 263 265 270 271 270 273 272 266 261 249 248 240 241 246 240 236 237 239 239 230 236 245 246 257 260 264 261 266
240 244 242 244 243 247 241 241 253 252 251 254 259 252 253 258 257 262 274 269 270 271 272 269 236 238 226 222 227 234 232 237 240 240 237 237 236 243 253 256 256 258 262 274
243 245 251 243 245 240 242 243 247 262 266 258 259 258 262 261 259 262 270 275 271 267 266 264 269 249 239 240 236 229 225 228 232 236 241 238 243 238 239 239 236 246 265 278
251 251 247 244 245 249 245 247 250 253 252 253 256 254 251 259 258 262 264 270 271 272 269 263 269 271 259 253 249 237 224 216 216 222 236 237 230 225 224 244 240 250 270 275
247 248 253 241 238 238 241 243 247 251 256 254 254 255 264 261 262 265 268 273 277 279 271 270 267 268 271 269 257 243 237 228 222 226 238 242 248 253 257 248 252 260 271 276
238 252 245 245 249 242 240 246 244 249 252 258 262 254 269 273 275 276 277 277 280 280 281 275 271 266 270 270 260 251 250 240 235 239 244 246 256 260 257 255 262 268 272 279
239 243 246 251 252 246 244 245 247 248 256 254 255 255 267 268 272 277 282 287 288 281 281 281 276 264 268 269 269 264 261 259 257 252 252 256 258 260 260 263 267 272 277 279
247 247 244 243 249 257 246 246 245 245 250 255 257 258 260 269 275 280 277 277 285 292 282 282 276 269 268 268 272 269 266 265 261 258 257 260 262 263 266 269 272 275 277 279
255 254 251 249 252 253 257 253 251 249 251 254 259 259 259 266 269 274 277 275 279 282 286 283 278 272 270 271 271 268 267 263 262 261 261 263 266 268 271 273 276 279 279 281
257 256 259 253 256 256 256 255 260 255 255 257 258 262 264 268 270 268 269 271 270 273 278 282 277 274 271 270 269 267 268 264 261 259 261 264 266 268 270 273 275 279 283 287
264 260 262 253 262 265 258 253 255 258 259 256 256 252 243 269 268 268 272 273 269 267 265 269 273 272 271 269 268 266 266 266 264 262 263 263 265 267 270 273 277 280 283 290
261 261 267 257 267 259 262 265 262 261 260 258 261 252 255 266 269 271 271 274 270 269 265 259 265 268 271 271 267 266 264 262 260 261 262 263 264 266 272 276 279 284 289 291
260 261 262 261 261 268 267 265 266 260 264 259 260 262 260 262 274 273 270 270 269 273 271 265 264 266 267 264 260 258 259 261 260 259 260 261 262 265 270 275 279 284 285 289
264 259 257 260 262 264 262 274 279 273 267 263 252 245 248 261 267 265 268 270 272 272 270 266 266 267 263 258 255 253 255 256 258 258 259 260 263 266 270 274 277 283 283 288
269 265 254 256 262 269 266 277 277 265 269 263 259 259 253 264 262 257 268 275 273 271 268 265 263 259 257 256 254 253 253 254 257 259 259 262 266 269 273 276 280 279 281 284
265 262 259 258 262 267 278 277 264 272 268 277 270 238 258 266 257 258 264 270 274 274 270 266 261 258 259 255 248 251 253 256 254 255 259 263 268 273 276 275 277 276 277 281
264 262 260 262 264 270 279 280 287 283 279 273 270 270 271 265 255 252 263 268 273 275 271 267 262 261 259 249 245 247 251 249 249 252 257 263 269 272 273 273 273 273 276 278
280 275 263 263 258 268 275 279 288 287 281 274 278 281 278 271 271 270 271 270 275 276 276 267 261 260 255 249 248 251 246 244 246 250 255 261 265 268 271 273 272 271 272 273
284 284 273 263 266 273 275 279 286 284 281 280 282 285 282 276 277 273 275 277 279 279 278 272 262 258 258 253 248 250 245 242 244 249 254 260 267 268 269 272 271 269 272 273
285 281 273 264 273 271 268 277 287 285 282 281 278 276 280 281 279 283 280 290 289 284 282 276 270 264 259 256 254 252 248 245 245 249 254 260 263 265 266 264 268 274 276 278